Regional Weather Roundup
Issued by NWS

Home | Current Version | Previous Version | Text Only | Print | Product List | Glossary Off
Versions: 1 2 3 4 5 6 7 8 9 10 11 12 13 14 15 16 17 18 19 20 21 22 23 24 25 26 27 28 29 30 31 32 33 34 35 36 37 38 39 40 41 42 43 44 45 46 47 48 49 50

000
ASUS45 KBOI 202210
RWRID

IDAHO REGIONAL WEATHER ROUNDUP
NATIONAL WEATHER SERVICE BOISE ID
300 PM MST MON FEB 20 2017

NOTE: "FAIR" INDICATES FEW OR NO CLOUDS BELOW 12000 FEET
WITH NO SIGNIFICANT WEATHER AND/OR OBSTRUCTIONS TO VISIBILITY

IDZ012-014-202300-
SOUTHWEST IDAHO


CITY           SKY/WX    TMP DP  RH WIND       PRES   REMARKS
BOISE          CLOUDY    57  38  48 SW14      29.76R
CALDWELL       CLOUDY    56  43  61 S21       29.75R
MOUNTAIN HOME  CLOUDY    55  40  58 SW14      29.78S
$$

IDZ016-017-202300-
SOUTHCENTRAL IDAHO


CITY           SKY/WX    TMP DP  RH WIND       PRES   REMARKS
BURLEY         CLOUDY    50  36  58 S28G33    29.84R
JEROME           N/A    N/A N/A N/A MISG      29.85S
TWIN FALLS     CLOUDY    51  36  56 S29G40    29.83R
$$

IDZ019>023-202300-
SOUTHEAST IDAHO


CITY           SKY/WX    TMP DP  RH WIND       PRES   REMARKS
IDAHO FALLS    LGT RAIN  40  37  89 S18G30    29.90R WCI  31
POCATELLO      CLOUDY    43  37  79 S28G39    29.90F
REXBURG        LGT RAIN  41  36  82 S16G25    29.88S
$$

IDZ006-010-011-018-031-032-202300-
CENTRAL IDAHO MOUNTAINS


CITY           SKY/WX    TMP DP  RH WIND       PRES   REMARKS
MCCALL         CLOUDY    42  32  67 S23G33    29.70S
HAILEY         RAIN      37  36  93 S6        29.87F WCI  33
STANLEY          N/A     36  34  92 SE9G18    29.76S WCI  29
SALMON         CLOUDY    45  36  70 S13       29.69R
CHALLIS        LGT RAIN  40  35  83 S13       29.74R WCI  32
$$

IDZ002-004-006-007-026-202300-
NORTHERN IDAHO


CITY           SKY/WX    TMP DP  RH WIND       PRES   REMARKS
LEWISTON       LGT RAIN  49  42  77 E5        29.56R
LOWELL           N/A     48  39  71 VRB3      29.61F
COEUR D`ALENE  LGT RAIN  37  35  92 NE7       29.52F WCI  32
MULLAN PASS    SNOW      31  31 100 S8        29.52R VSB 1/2 WCI  23
$$



USA.gov is the U.S. government's official web portal to all federal, state and local government web resources and services.